{"data":{"norad_id":59919,"intl_designator":"2024-105C","name":"2024-105C","alt_names":[],"object_type":"PAYLOAD","status":"ACTIVE","operator":null,"country":"PRC","launch_date":"2024-05-30","launch_site_code":"JSC","launch_vehicle":null,"mission":null,"orbit_class":"UNKNOWN","rcs_meters":null,"size_class":null,"mass_kg":null,"dimensions":null,"purposes":[],"wikipedia_slug":null,"has_3d_model":false,"image_url":null,"decayed_at":null,"tle_current":{"epoch":"2026-05-17T08:21:51.618240Z","epoch_age_seconds":732309,"freshness":"AGED","line1":"1 59919U 24105C   26137.34851410  .00003149  00000+0  14767-3 0  9994","line2":"2 59919  97.5921 154.2007 0041166   4.8198 355.3425 15.19700486108484","mean_motion":15.19700486,"eccentricity":0.0041166,"inclination_deg":97.5921,"raan_deg":154.2007,"arg_perigee_deg":4.8198,"mean_anomaly_deg":355.3425,"bstar":0.00014767,"rev_number":10848,"period_min":94.755513554531,"perigee_km":478.40277584135,"apogee_km":535.08738699408,"semimajor_km":6884.8820814177,"source":"CELESTRAK","updated_at":"2026-05-25T13:38:01.748113Z"}}}